This is the latest recevied weather packets stored in our database for station/object OK3MS-5. If no packets are shown the sender has not sent any weather packets the latest 10 day(s).
| Time | Temp. | Humidity | Pressure | Rain* | Wind** | Luminosity | Snow |
|---|---|---|---|---|---|---|---|
| 1777794003 | 17.78° C | 46% | 1015.9 hPa | 0 mm | - | 446 W/m² | - |
| 1777793704 | 17.22° C | 46% | 1016 hPa | 0 mm | - | 427 W/m² | - |
| 1777793406 | 17.78° C | 46% | 1016 hPa | 0 mm | - | 413 W/m² | - |
| 1777793104 | 17.22° C | 46% | 1016 hPa | 0 mm | - | 396 W/m² | - |
| 1777792804 | 17.22° C | 47% | 1016 hPa | 0 mm | - | 378 W/m² | - |
| 1777792504 | 16.67° C | 47% | 1016.1 hPa | 0 mm | - | 374 W/m² | - |
| 1777792203 | 16.67° C | 47% | 1016.1 hPa | 0 mm | - | 361 W/m² | - |
| 1777791905 | 16.67° C | 47% | 1016.2 hPa | 0 mm | - | 349 W/m² | - |
| 1777791603 | 16.67° C | 47% | 1016.2 hPa | 0 mm | - | 344 W/m² | - |
| 1777791305 | 16.67° C | 49% | 1016.3 hPa | 0 mm | - | 328 W/m² | - |
| 1777791003 | 16.11° C | 49% | 1016.3 hPa | 0 mm | - | 311 W/m² | - |
| 1777790704 | 16.11° C | 49% | 1016.3 hPa | 0 mm | - | 292 W/m² | - |
| 1777790407 | 15.56° C | 50% | 1016.4 hPa | 0 mm | - | 277 W/m² | - |
| 1777790105 | 16.11° C | 49% | 1016.3 hPa | 0 mm | - | 274 W/m² | - |
| 1777789805 | 16.11° C | 49% | 1016.4 hPa | 0 mm | - | 255 W/m² | - |
| 1777789503 | 15.56° C | 49% | 1016.5 hPa | 0 mm | - | 235 W/m² | - |
| 1777789204 | 15° C | 50% | 1016.4 hPa | 0 mm | - | 57 W/m² | - |
| 1777788908 | 15° C | 51% | 1016.6 hPa | 0 mm | - | 54 W/m² | - |
| 1777788604 | 14.44° C | 51% | 1016.7 hPa | 0 mm | - | 53 W/m² | - |
| 1777788307 | 14.44° C | 52% | 1016.7 hPa | 0 mm | - | 52 W/m² | - |
| 1777788004 | 13.89° C | 53% | 1016.7 hPa | 0 mm | - | 51 W/m² | - |
| 1777787710 | 13.89° C | 54% | 1016.8 hPa | 0 mm | - | 50 W/m² | - |
| 1777787404 | 13.33° C | 55% | 1016.8 hPa | 0 mm | - | 49 W/m² | - |
| 1777787103 | 13.33° C | 58% | 1016.8 hPa | 0 mm | - | 47 W/m² | - |
| 1777786806 | 12.78° C | 60% | 1016.8 hPa | 0 mm | - | 46 W/m² | - |
* Rain latest hour (hover to see other rain measurements)
** Current wind speed in m/s (hover to see current wind gust speed)